EW9965 Weather Reports


time (UTC)temp
C
wind
direction
speed
KPH
gust
KPH
rain 1hr
cm
rain 24hr
cm
rain mn
cm
humidity
%
barometer
mb
20260831153001 23 254 0.0 3.2 0.00 0.00 0.00 77 1013.3
20260831151558 22 38 0.0 6.4 0.00 0.00 0.00 79 1013.2
20260831150105 21 62 0.0 3.2 0.00 0.00 0.00 83 1013.1
20260831144550 21 359 0.0 6.4 0.00 0.00 0.00 84 1013.0
20260831143044 21 5 0.0 4.8 0.00 0.00 0.00 84 1013.0
20260831141539 20 5 3.2 8.0 0.00 0.00 0.00 85 1012.8
20260831140037 20 38 1.6 8.0 0.00 0.00 0.00 84 1012.6
20260831134533 20 49 1.6 8.0 0.00 0.00 0.00 84 1012.4
20260831133035 21 23 1.6 6.4 0.00 0.00 0.00 85 1012.3
20260831131529 21 336 1.6 8.0 0.00 0.00 0.00 85 1012.0
20260831130027 21 20 0.0 6.4 0.00 0.00 0.00 85 1012.0
20260831124547 21 88 0.0 3.2 0.00 0.00 0.00 85 1012.0
20260831123027 21 80 0.0 4.8 0.00 0.00 0.00 86 1012.1
20260831121526 21 78 0.0 6.4 0.00 0.00 0.00 86 1012.0
20260831120029 21 70 0.0 6.4 0.00 0.00 0.00 86 1011.9
20260831114537 21 101 6.4 9.7 0.00 0.00 0.00 86 1012.0
20260831113024 21 77 0.0 8.0 0.00 0.00 0.00 86 1011.9
20260831111522 21 82 1.6 6.4 0.00 0.00 0.00 87 1012.0
20260831110022 21 68 0.0 4.8 0.00 0.00 0.00 87 1012.0
20260831104532 21 78 0.0 3.2 0.00 0.00 0.00 87 1012.1
20260831103022 21 103 1.6 8.0 0.00 0.00 0.00 87 1012.2
20260831101520 21 95 0.0 8.0 0.00 0.00 0.00 87 1012.0
20260831100019 21 149 1.6 8.0 0.00 0.00 0.00 87 1012.1
20260831094518 20 101 0.0 1.6 0.00 0.00 0.00 87 1012.1
20260831093029 20 149 0.0 0.0 0.00 0.00 0.00 86 1012.0
20260831091515 20 149 0.0 0.0 0.00 0.00 0.00 85 1012.1
20260831090015 20 149 0.0 0.0 0.00 0.00 0.00 84 1012.1
20260831084513 20 149 0.0 0.0 0.00 0.00 0.00 84 1012.1
20260831083017 20 149 0.0 0.0 0.00 0.00 0.00 83 1012.2
20260831081508 20 149 0.0 0.0 0.00 0.00 0.00 83 1012.1
20260831080005 20 149 0.0 0.0 0.00 0.00 0.00 83 1012.2
20260831074503 21 149 0.0 0.0 0.00 0.00 0.00 83 1012.1
20260831073101 21 149 0.0 0.0 0.00 0.00 0.00 82 1012.0
20260831071555 21 149 0.0 0.0 0.00 0.00 0.00 82 1012.1
20260831070056 21 149 0.0 0.0 0.00 0.00 0.00 82 1012.2
20260831064553 21 149 0.0 0.0 0.00 0.00 0.00 82 1012.4
20260831063052 21 149 0.0 0.0 0.00 0.00 0.00 82 1012.1
20260831061552 22 183 0.0 0.0 0.00 0.00 0.00 82 1012.1
20260831060051 22 203 0.0 0.0 0.00 0.00 0.00 82 1012.2
20260831054551 22 206 0.0 0.0 0.00 0.00 0.00 81 1012.2
20260831053050 22 217 0.0 0.0 0.00 0.00 0.00 80 1012.0
20260831051549 22 241 0.0 6.4 0.00 0.00 0.00 79 1012.0
20260831044603 23 218 0.0 8.0 0.00 0.00 0.00 77 1012.0
20260831043048 23 249 0.0 6.4 0.00 0.00 0.00 75 1011.7
20260831041557 23 213 0.0 9.7 0.00 0.00 0.00 74 1011.8
20260831040046 24 171 0.0 6.4 0.00 0.00 0.00 73 1011.6
20260831034546 24 182 1.6 4.8 0.00 0.00 0.00 73 1011.2
20260831033048 25 203 0.0 6.4 0.00 0.00 0.00 72 1010.9
20260831031549 25 202 0.0 6.4 0.00 0.00 0.00 71 1010.7
20260831030044 25 175 0.0 8.0 0.00 0.00 0.00 69 1010.7
20260831024607 26 181 0.0 8.0 0.00 0.00 0.00 68 1010.6
20260831023042 26 170 3.2 12.9 0.00 0.00 0.00 67 1010.6
20260831021543 26 178 4.8 12.9 0.00 0.00 0.00 64 1010.4
20260831014556 27 157 1.6 11.3 0.00 0.00 0.00 61 1010.3
20260831013038 28 230 3.2 9.7 0.00 0.00 0.00 59 1010.2
20260831011538 28 156 6.4 12.9 0.00 0.00 0.00 58 1010.2
20260831010045 29 195 4.8 16.1 0.00 0.00 0.00 55 1010.1
20260831004534 30 226 1.6 12.9 0.00 0.00 0.00 52 1010.2
20260831003034 30 171 3.2 11.3 0.00 0.00 0.00 49 1010.4
20260831001540 31 149 8.0 14.5 0.00 0.00 0.00 45 1010.3
20260831000030 31 175 6.4 16.1 0.00 0.00 0.00 42 1010.3
20260830234541 31 180 3.2 16.1 0.00 0.00 0.00 39 1010.3
20260830233029 32 159 8.0 14.5 0.00 0.00 0.00 36 1010.3
20260830231528 32 179 4.8 14.5 0.00 0.00 0.00 37 1010.3
20260830230034 32 166 8.0 16.1 0.00 0.00 0.00 37 1010.3
20260830224533 32 226 8.0 14.5 0.00 0.00 0.00 37 1010.3
20260830223026 33 156 4.8 12.9 0.00 0.00 0.00 33 1010.3
20260830221525 33 176 4.8 14.5 0.00 0.00 0.00 32 1010.6
20260830220031 33 218 6.4 14.5 0.00 0.00 0.00 33 1010.8
20260830214523 33 161 8.0 16.1 0.00 0.00 0.00 33 1010.9
20260830213022 33 275 3.2 16.1 0.00 0.00 0.00 34 1010.9
20260830211521 33 160 8.0 14.5 0.00 0.00 0.00 34 1010.9
20260830210018 33 187 6.4 16.1 0.00 0.00 0.00 35 1011.2
20260830204516 33 161 6.4 16.1 0.00 0.00 0.00 36 1011.3
20260830203015 33 209 4.8 19.3 0.00 0.00 0.00 38 1011.4
20260830201544 33 149 6.4 17.7 0.00 0.00 0.00 39 1011.5
20260830200013 33 166 6.4 17.7 0.00 0.00 0.00 42 1011.4
20260830194512 33 149 4.8 14.5 0.00 0.00 0.00 46 1011.4
20260830193009 32 209 6.4 14.5 0.00 0.00 0.00 47 1011.6
20260830191505 33 177 6.4 16.1 0.00 0.00 0.00 45 1011.7
20260830190001 33 245 4.8 14.5 0.00 0.00 0.00 47 1011.7
20260830184557 32 163 4.8 11.3 0.00 0.00 0.00 50 1011.7
20260830183055 32 192 1.6 11.3 0.00 0.00 0.00 51 1011.7
20260830181605 32 163 6.4 12.9 0.00 0.00 0.00 52 1011.8
20260830180049 31 204 6.4 12.9 0.00 0.00 0.00 54 1011.9
20260830174543 30 209 3.2 11.3 0.00 0.00 0.00 55 1011.8
20260830173039 30 259 3.2 8.0 0.00 0.00 0.00 59 1011.7
20260830171537 28 149 6.4 11.3 0.00 0.00 0.00 62 1011.7
20260830170031 27 149 3.2 8.0 0.00 0.00 0.00 67 1011.7
20260830164531 27 149 1.6 8.0 0.00 0.00 0.00 70 1011.5
20260830163028 26 226 1.6 8.0 0.00 0.00 0.00 72 1011.6
20260830161520 25 167 0.0 8.0 0.00 0.00 0.00 75 1011.6
20260830160015 24 223 0.0 8.0 0.00 0.00 0.00 78 1011.7
20260830154509 23 144 1.6 6.4 0.00 0.00 0.00 81 1011.7